[[{"header":{"parameterUnit":"m.s-1","parameterCategory":1,"la1":30.2991,"la2":30.254,"lo1":-89.0895,"lo2":-89.0444,"dy":0.0017,"dx":0.0017,"nx":28,"ny":28,"refTime":"2023-07-29T21:00:00:Z","depth":0,"parameterNumber":2,"parameterNumberName":"U-component_of_WINDS"},"data":[0,0,0,0,0,0,0,0,0,0,0,0,0,0,0,0,0,0,0,0,0,0,0,0,0,0,0,0,0,0,0,0,0,0,0,0,0,0,0,0,0,0,0,0,0,0,0,0,0,0,0,0,0,0,0,0,0,0,4.2277,4.2279,0,4.238,4.2382,4.2383,4.2314,4.2311,4.2308,4.2305,4.2411,4.2417,4.2422,0,0,0,0,0,0,0,0,0,0,0,0,0,4.2022,4.2027,4.2277,4.2279,4.228,4.238,4.2382,4.2383,4.2315,4.2311,4.2307,4.2303,4.2409,4.2416,4.2423,0,0,0,0,0,0,0,0,0,0,0,0,0,4.213,4.2029,4.2277,4.2258,4.2257,4.238,4.2382,4.2383,4.2315,4.2311,4.2306,4.2302,4.2407,4.2415,4.2424,4.2572,0,0,4.245,4.2454,0,0,0,0,0,0,0,0,4.2124,4.214,4.2259,4.2259,4.2259,4.2329,4.2331,4.2447,4.2317,4.2293,4.2305,4.2299,4.2388,4.2398,4.2427,4.2577,4.2581,4.2451,4.2456,4.246,4.2462,0,0,0,0,0,0,0,4.2117,4.2135,4.2318,4.2261,4.2261,4.2244,4.2254,4.2352,4.2366,4.2295,4.229,4.2303,4.2387,4.2419,4.2429,4.2583,4.2451,4.2458,4.2464,4.2467,4.2859,4.2864,0,0,0,0,0,0,4.2111,4.2129,4.2315,4.2321,4.2178,4.2253,4.2264,4.2312,4.2365,4.2368,4.2307,4.23,4.2407,4.2419,4.2433,4.261,4.246,4.2468,4.2473,4.2854,4.2861,4.2866,0,0,0,0,0,0,4.2106,4.2128,4.2311,4.2224,4.2246,4.2262,4.2316,4.2316,4.2348,4.2374,4.2376,4.2338,4.2404,4.2421,4.2538,4.2612,4.2472,4.248,4.2848,4.2856,4.2863,4.2965,0,0,0,0,0,0,4.2099,4.2127,4.2183,4.2226,4.2251,4.2414,4.2321,4.2322,4.2364,4.2355,4.2403,4.2407,4.2401,4.2525,4.2546,4.2622,4.2487,4.2841,4.2852,4.2861,4.2955,4.2975,4.2992,0,0,0,0,0,4.209,4.2207,4.2186,4.2208,4.2321,4.2418,4.2433,4.2424,4.237,4.2426,4.2443,4.2405,4.2601,4.2538,4.2561,4.264,4.2837,4.2849,4.286,4.2946,4.2971,4.2992,0,0,0,0,0,0,4.2172,4.2212,4.2189,4.2324,4.2368,4.2406,4.2477,4.245,4.2511,4.25,4.2487,4.2498,4.2621,4.2642,4.2571,4.2787,4.271,4.2727,4.2768,4.2792,4.281,4.2802,4.2494,0,0,0,0,0,4.2206,4.2281,4.2312,4.2428,4.2451,4.2461,4.2503,4.2492,4.2538,4.2556,4.2581,4.2627,4.2699,4.2746,4.2814,4.2958,4.2967,4.3024,4.3043,4.3058,4.3073,4.3151,4.3176,4.2905,4.2905,4.2905,0,0,4.2276,4.2308,4.2356,4.2445,4.2478,4.2557,4.2477,4.2563,4.2622,4.2569,4.2681,4.2702,4.2752,4.2883,4.2942,4.2905,4.315,4.3073,4.3085,4.3091,4.3165,4.3191,4.3214,4.2913,4.2911,4.291,0,0,4.2445,4.2476,4.2576,4.2611,4.2663,4.2668,4.2693,4.2736,4.2747,4.2859,4.2822,4.2891,4.3015,4.3053,4.3088,4.3273,4.3241,4.3296,4.3394,4.347,4.3491,4.351,4.3576,4.36,4.331,4.3311,4.3311,0,4.2526,4.2643,4.2631,4.2721,4.2762,4.2718,4.282,4.2854,4.2925,4.2955,4.2912,4.3067,4.3098,4.3238,4.3283,4.3313,4.334,4.3289,4.3489,4.3508,4.3525,4.3588,4.3613,4.3317,4.3316,4.3315,4.3315,0,4.274,4.2822,4.2897,4.2966,4.3016,4.3111,4.3114,4.3166,4.3151,4.3162,4.3277,4.3313,4.3387,4.342,4.3407,4.3558,4.3533,4.3491,4.3414,4.3558,4.3617,4.3641,4.3326,4.3324,4.3322,4.332,0,0,4.2963,4.3026,4.3053,4.3085,4.3139,4.3202,4.3295,4.3368,4.3412,4.3463,4.3542,4.3648,4.3609,4.365,4.364,4.3708,4.3852,4.3656,4.3657,4.3691,4.4022,4.4053,4.4081,4.3831,4.3836,4.3839,4.4017,0,4.3134,4.3297,4.329,4.3443,4.3518,4.3479,4.3561,4.3603,4.3616,4.3682,4.3696,4.3772,4.3714,4.3738,4.3803,4.3821,4.3918,4.3808,4.3904,4.3908,4.3892,4.4112,4.4146,4.4312,4.404,4.4044,4.4047,0,4.3356,4.3415,4.3575,4.3618,4.365,4.3723,4.379,4.3853,4.3901,4.3906,4.3952,4.3932,4.4027,4.3949,4.408,4.4006,4.4045,4.406,4.4066,4.4074,4.3986,4.4126,4.4365,4.439,4.4083,4.408,4.4078,0,4.3502,4.3621,4.3732,4.3761,4.3814,4.3867,4.3892,4.3935,4.3979,4.4037,4.4066,4.4135,4.4173,4.4227,4.4227,4.4169,4.4361,4.4281,4.4367,4.4367,4.4408,4.4406,4.4657,4.4435,4.4434,4.4434,4.4433,0,4.3695,4.3794,4.3799,4.3867,4.3978,4.3969,4.4079,4.4099,4.4138,4.421,4.418,4.4248,4.4244,4.4313,4.4314,4.4423,4.4441,4.4447,4.4446,4.445,4.4449,4.4475,4.4463,4.4441,4.4439,4.4438,4.4437,0,4.3876,4.3883,4.4002,4.4043,4.4056,4.4136,4.4171,4.4237,4.4247,4.4339,4.436,4.4376,4.4457,4.4462,4.4555,4.4555,4.4688,4.4674,4.4671,4.4669,4.4754,4.4746,4.503,4.5067,4.4821,4.4824,4.4826,0,4.3998,4.4074,4.4123,4.4169,4.4197,4.4272,4.4317,4.4312,4.4361,4.4421,4.4479,4.4557,4.4618,4.4748,4.4769,4.484,4.4828,4.4923,4.4838,4.484,4.4829,4.4824,4.4832,4.4939,4.4941,4.4944,4.4945,0,4.4214,4.4214,4.428,4.4348,4.4403,4.4457,4.4506,4.4546,4.4547,4.4603,4.4685,4.4733,4.4827,4.4905,4.4974,4.5,4.4974,4.4972,4.4995,4.5,4.4995,4.4999,4.4716,4.4965,4.4963,4.4962,4.4961,4.496,4.4369,4.4435,4.448,4.4555,4.4592,4.464,4.4703,4.4722,4.479,4.4866,4.486,4.495,4.4997,4.5087,4.5119,4.519,4.5158,4.5192,4.5201,4.5209,4.5218,4.4984,4.5203,4.5202,4.5202,4.5201,4.5201,0,4.4583,4.4611,4.468,4.4751,4.481,4.478,4.4834,4.4885,4.4965,4.5011,4.5072,4.5166,4.5242,4.5269,4.5342,4.5394,4.5384,4.5413,4.5409,4.5416,4.5243,4.5215,4.542,4.542,4.542,4.542,4.542,4.542,4.4702,4.4811,4.4817,4.4945,4.4971,4.506,4.5093,4.5137,4.5173,4.528,4.5342,4.5359,4.5398,4.5474,4.5542,4.5548,4.5576,4.5611,4.5612,4.545,4.5428,4.5407,4.538,4.5617,4.5618,4.5779,4.5781,4.5782]},{"header":{"parameterUnit":"m.s-1","parameterCategory":1,"la1":30.2991,"la2":30.254,"lo1":-89.0895,"lo2":-89.0444,"dy":0.0017,"dx":0.0017,"nx":28,"ny":28,"refTime":"2023-07-29T21:00:00:Z","depth":0,"parameterNumber":3,"parameterNumberName":"V-component_of_WINDS"},"data":[0,0,0,0,0,0,0,0,0,0,0,0,0,0,0,0,0,0,0,0,0,0,0,0,0,0,0,0,0,0,0,0,0,0,0,0,0,0,0,0,0,0,0,0,0,0,0,0,0,0,0,0,0,0,0,0,0,0,-1.0203,-1.0203,0,-1.0219,-1.0219,-1.022,-1.0207,-1.0206,-1.0206,-1.0205,-1.0222,-1.0222,-1.0223,0,0,0,0,0,0,0,0,0,0,0,0,0,-1.016,-1.0161,-1.0203,-1.0203,-1.0203,-1.0219,-1.0219,-1.022,-1.0207,-1.0206,-1.0206,-1.0205,-1.0221,-1.0222,-1.0223,0,0,0,0,0,0,0,0,0,0,0,0,0,-1.0178,-1.0161,-1.0203,-1.0199,-1.0199,-1.0219,-1.0219,-1.022,-1.0207,-1.0206,-1.0205,-1.0205,-1.0221,-1.0222,-1.0224,-1.0249,0,0,-1.0228,-1.0229,0,0,0,0,0,0,0,0,-1.0177,-1.0179,-1.0199,-1.0199,-1.0199,-1.021,-1.021,-1.023,-1.0207,-1.0204,-1.0205,-1.0204,-1.0218,-1.022,-1.0225,-1.025,-1.025,-1.0228,-1.0229,-1.023,-1.023,0,0,0,0,0,0,0,-1.0175,-1.0178,-1.0209,-1.0199,-1.0199,-1.0196,-1.0198,-1.0214,-1.0215,-1.0204,-1.0203,-1.0205,-1.0218,-1.0223,-1.0225,-1.0251,-1.0228,-1.0229,-1.023,-1.0231,-1.0297,-1.0298,0,0,0,0,0,0,-1.0175,-1.0177,-1.0209,-1.021,-1.0185,-1.0197,-1.0199,-1.0207,-1.0215,-1.0216,-1.0206,-1.0205,-1.0221,-1.0223,-1.0226,-1.0256,-1.023,-1.0231,-1.0232,-1.0296,-1.0297,-1.0298,0,0,0,0,0,0,-1.0174,-1.0177,-1.0208,-1.0193,-1.0197,-1.0199,-1.0208,-1.0208,-1.0213,-1.0217,-1.0217,-1.0211,-1.0221,-1.0224,-1.0243,-1.0256,-1.0232,-1.0233,-1.0295,-1.0296,-1.0298,-1.0316,0,0,0,0,0,0,-1.0173,-1.0177,-1.0187,-1.0194,-1.0198,-1.0226,-1.0209,-1.0209,-1.0216,-1.0214,-1.0222,-1.0222,-1.022,-1.0241,-1.0245,-1.0257,-1.0234,-1.0294,-1.0296,-1.0297,-1.0314,-1.0318,-1.0321,0,0,0,0,0,-1.0171,-1.0191,-1.0187,-1.0191,-1.021,-1.0226,-1.0229,-1.0227,-1.0217,-1.0227,-1.0229,-1.0222,-1.0254,-1.0243,-1.0247,-1.0261,-1.0293,-1.0295,-1.0297,-1.0312,-1.0317,-1.032,0,0,0,0,0,0,-1.0185,-1.0192,-1.0188,-1.0211,-1.0218,-1.0224,-1.0236,-1.0231,-1.0241,-1.0239,-1.0236,-1.0238,-1.0258,-1.0261,-1.0249,-1.0285,-1.0272,-1.0275,-1.0282,-1.0287,-1.029,-1.0288,-1.0235,0,0,0,0,0,-1.0191,-1.0204,-1.0209,-1.0229,-1.0233,-1.0234,-1.0241,-1.0239,-1.0246,-1.0249,-1.0253,-1.026,-1.0272,-1.0279,-1.029,-1.0315,-1.0316,-1.0326,-1.0329,-1.0332,-1.0334,-1.0347,-1.0351,-1.0305,-1.0305,-1.0305,0,0,-1.0204,-1.0209,-1.0217,-1.0232,-1.0237,-1.0251,-1.0237,-1.0251,-1.0261,-1.0251,-1.027,-1.0273,-1.0281,-1.0303,-1.0313,-1.0306,-1.0347,-1.0334,-1.0337,-1.0337,-1.035,-1.0354,-1.0358,-1.0306,-1.0306,-1.0306,0,0,-1.0232,-1.0238,-1.0255,-1.0261,-1.0269,-1.027,-1.0274,-1.0281,-1.0283,-1.0301,-1.0294,-1.0306,-1.0326,-1.0332,-1.0338,-1.037,-1.0363,-1.0373,-1.039,-1.0403,-1.0407,-1.041,-1.0421,-1.0425,-1.0376,-1.0376,-1.0376,0,-1.0246,-1.0266,-1.0264,-1.0279,-1.0286,-1.0278,-1.0296,-1.0301,-1.0313,-1.0318,-1.031,-1.0336,-1.0341,-1.0364,-1.0372,-1.0377,-1.0381,-1.0372,-1.0406,-1.041,-1.0413,-1.0423,-1.0427,-1.0377,-1.0377,-1.0377,-1.0377,0,-1.0283,-1.0297,-1.0309,-1.0321,-1.0329,-1.0345,-1.0346,-1.0354,-1.0352,-1.0353,-1.0373,-1.0378,-1.039,-1.0396,-1.0393,-1.0419,-1.0414,-1.0407,-1.0393,-1.0418,-1.0428,-1.0432,-1.0379,-1.0378,-1.0378,-1.0378,0,0,-1.032,-1.0331,-1.0336,-1.0341,-1.035,-1.0361,-1.0377,-1.0389,-1.0396,-1.0405,-1.0418,-1.0435,-1.0429,-1.0435,-1.0433,-1.0444,-1.0469,-1.0435,-1.0436,-1.0441,-1.0497,-1.0503,-1.0507,-1.0465,-1.0466,-1.0467,-1.0497,0,-1.0349,-1.0377,-1.0376,-1.0402,-1.0414,-1.0408,-1.0422,-1.0429,-1.0431,-1.0442,-1.0444,-1.0456,-1.0446,-1.045,-1.0461,-1.0464,-1.048,-1.0462,-1.0477,-1.0478,-1.0475,-1.0512,-1.0518,-1.0546,-1.05,-1.0501,-1.0501,0,-1.0387,-1.0397,-1.0424,-1.0431,-1.0437,-1.0449,-1.046,-1.0471,-1.0479,-1.0479,-1.0487,-1.0483,-1.0499,-1.0486,-1.0508,-1.0495,-1.0502,-1.0504,-1.0505,-1.0506,-1.0491,-1.0514,-1.0555,-1.0559,-1.0508,-1.0507,-1.0507,0,-1.0411,-1.0431,-1.045,-1.0455,-1.0464,-1.0473,-1.0477,-1.0484,-1.0492,-1.0502,-1.0506,-1.0518,-1.0524,-1.0533,-1.0532,-1.0523,-1.0555,-1.0541,-1.0555,-1.0555,-1.0562,-1.0561,-1.0604,-1.0567,-1.0567,-1.0567,-1.0567,0,-1.0443,-1.046,-1.0461,-1.0473,-1.0491,-1.049,-1.0509,-1.0512,-1.0518,-1.053,-1.0525,-1.0537,-1.0536,-1.0547,-1.0547,-1.0565,-1.0568,-1.0569,-1.0569,-1.0569,-1.0569,-1.0573,-1.0571,-1.0568,-1.0568,-1.0567,-1.0567,0,-1.0473,-1.0475,-1.0495,-1.0502,-1.0504,-1.0518,-1.0524,-1.0535,-1.0537,-1.0552,-1.0555,-1.0558,-1.0572,-1.0572,-1.0587,-1.0587,-1.0609,-1.0607,-1.0607,-1.0606,-1.062,-1.0619,-1.0666,-1.0672,-1.0632,-1.0632,-1.0632,0,-1.0494,-1.0506,-1.0515,-1.0523,-1.0528,-1.054,-1.0548,-1.0547,-1.0555,-1.0566,-1.0575,-1.0588,-1.0598,-1.062,-1.0623,-1.0635,-1.0633,-1.0649,-1.0634,-1.0635,-1.0633,-1.0632,-1.0633,-1.0651,-1.0652,-1.0652,-1.0652,0,-1.0529,-1.0529,-1.0541,-1.0552,-1.0562,-1.0571,-1.0579,-1.0586,-1.0586,-1.0596,-1.0609,-1.0617,-1.0633,-1.0646,-1.0658,-1.0662,-1.0657,-1.0657,-1.0661,-1.0661,-1.066,-1.0661,-1.0614,-1.0656,-1.0655,-1.0655,-1.0655,-1.0655,-1.0555,-1.0566,-1.0574,-1.0586,-1.0593,-1.0601,-1.0612,-1.0615,-1.0626,-1.0639,-1.0638,-1.0653,-1.0661,-1.0676,-1.0682,-1.0693,-1.0688,-1.0693,-1.0695,-1.0696,-1.0697,-1.0659,-1.0695,-1.0695,-1.0695,-1.0695,-1.0695,0,-1.059,-1.0595,-1.0606,-1.0619,-1.0629,-1.0624,-1.0633,-1.0642,-1.0655,-1.0663,-1.0673,-1.0689,-1.0702,-1.0706,-1.0718,-1.0727,-1.0725,-1.073,-1.0729,-1.073,-1.0702,-1.0697,-1.0731,-1.0731,-1.0731,-1.0731,-1.0731,-1.0731,-1.0609,-1.0627,-1.0629,-1.065,-1.0655,-1.067,-1.0676,-1.0683,-1.0689,-1.0707,-1.0718,-1.0721,-1.0727,-1.074,-1.0751,-1.0752,-1.0757,-1.0763,-1.0763,-1.0736,-1.0732,-1.0729,-1.0724,-1.0764,-1.0764,-1.079,-1.0791,-1.0791]}]]